GW5423 Weather Reports


time (UTC)temp
C
wind
direction
speed
KPH
gust
KPH
rain 1hr
cm
rain 24hr
cm
rain mn
cm
humidity
%
barometer
mb
20260505035555 8 298 6.4 14.5 0.00 0.10 0.10 64 1011.0
20260505035057 8 298 6.4 14.5 0.00 0.10 0.10 63 1011.0
20260505034556 8 290 6.4 12.9 0.00 0.10 0.10 63 1010.9
20260505034052 8 311 6.4 12.9 0.00 0.10 0.10 63 1010.9
20260505033554 8 339 4.8 11.3 0.00 0.10 0.10 63 1011.0
20260505033100 8 335 4.8 12.9 0.00 0.10 0.10 62 1010.7
20260505032553 9 286 4.8 12.9 0.00 0.10 0.10 62 1010.7
20260505032058 9 328 4.8 11.3 0.00 0.10 0.10 61 1010.7
20260505031555 9 323 4.8 11.3 0.00 0.10 0.10 62 1010.6
20260505031054 9 292 6.4 11.3 0.00 0.10 0.10 60 1010.6
20260505030558 9 273 4.8 11.3 0.00 0.10 0.10 61 1010.5
20260505030057 10 288 4.8 12.9 0.00 0.10 0.10 60 1010.4
20260505025554 9 277 6.4 12.9 0.00 0.10 0.10 59 1010.4
20260505025053 9 342 6.4 12.9 0.00 0.10 0.10 60 1010.3
20260505024554 9 312 6.4 12.9 0.00 0.10 0.10 61 1010.2
20260505024054 9 300 6.4 11.3 0.00 0.10 0.10 61 1010.3
20260505023552 10 289 4.8 11.3 0.00 0.10 0.10 60 1010.2
20260505023054 10 282 3.2 6.4 0.00 0.10 0.10 60 1010.2
20260505022552 10 305 1.6 6.4 0.00 0.10 0.10 60 1010.2
20260505022057 10 275 3.2 6.4 0.00 0.10 0.10 59 1010.2
20260505021553 10 257 3.2 6.4 0.00 0.10 0.10 59 1010.2
20260505021055 10 244 3.2 6.4 0.00 0.10 0.10 58 1010.2
20260505020554 11 221 3.2 6.4 0.00 0.10 0.10 60 1010.3
20260505020054 11 265 3.2 8.0 0.00 0.10 0.10 57 1010.1
20260505015554 11 279 3.2 9.7 0.00 0.10 0.10 57 1010.1
20260505015054 11 269 4.8 9.7 0.00 0.10 0.10 55 1010.2
20260505014556 12 239 1.6 9.7 0.00 0.10 0.10 55 1010.2
20260505014054 12 292 1.6 12.9 0.00 0.10 0.10 51 1010.2
20260505013554 12 329 4.8 12.9 0.00 0.10 0.10 50 1010.3
20260505013054 12 317 4.8 12.9 0.00 0.10 0.10 50 1010.4
20260505012554 12 251 4.8 11.3 0.00 0.10 0.10 48 1010.4
20260505012055 12 261 6.4 12.9 0.00 0.10 0.10 47 1010.2
20260505011600 12 257 6.4 16.1 0.00 0.10 0.10 47 1010.3
20260505011055 12 228 6.4 19.3 0.00 0.10 0.10 49 1010.3
20260505010554 12 271 9.7 19.3 0.00 0.10 0.10 50 1010.3
20260505010104 12 243 9.7 19.3 0.00 0.10 0.10 51 1010.4
20260505005555 12 284 9.7 19.3 0.00 0.10 0.10 52 1010.6
20260505005057 12 257 6.4 19.3 0.00 0.10 0.10 53 1010.7
20260505004552 12 279 9.7 19.3 0.00 0.10 0.10 54 1010.7
20260505004055 12 252 9.7 19.3 0.00 0.10 0.10 56 1010.7
20260505003554 12 239 9.7 17.7 0.00 0.10 0.10 54 1010.7
20260505003056 11 221 8.0 16.1 0.00 0.10 0.10 54 1010.9
20260505002554 11 268 9.7 16.1 0.00 0.10 0.10 55 1010.9
20260505002054 11 232 3.2 22.5 0.00 0.10 0.10 56 1011.1
20260505001554 11 323 3.2 22.5 0.03 0.10 0.10 54 1011.3
20260505001051 10 296 11.3 22.5 0.03 0.10 0.10 53 1011.3
20260505000551 10 314 9.7 20.9 0.05 0.10 0.10 58 1011.6
20260505000101 10 309 4.8 17.7 0.08 0.10 0.10 62 1011.9
20260504235555 9 273 8.0 17.7 0.08 0.10 0.10 65 1012.1
20260504235055 9 273 9.7 16.1 0.10 0.10 0.10 68 1012.3
20260504234605 9 261 9.7 24.1 0.10 0.10 0.10 68 1012.4
20260504234057 8 282 9.7 24.1 0.10 0.10 0.10 68 1012.4
20260504233554 8 282 11.3 29.0 0.10 0.10 0.10 68 1012.5
20260504233059 8 282 14.5 29.0 0.10 0.10 0.10 69 1012.6
20260504232555 8 261 17.7 32.2 0.10 0.10 0.10 70 1012.4
20260504232056 8 277 16.1 32.2 0.10 0.10 0.10 70 1012.5
20260504231553 8 257 19.3 40.2 0.08 0.08 0.08 70 1012.5
20260504231055 9 273 19.3 41.8 0.08 0.08 0.08 68 1012.5
20260504230554 10 275 25.7 41.8 0.05 0.05 0.05 65 1012.6
20260504230055 10 290 20.9 45.1 0.03 0.03 0.03 63 1012.6
20260504225552 10 296 25.7 45.1 0.03 0.03 0.03 62 1012.3
20260504225057 10 284 20.9 40.2 0.00 0.00 0.00 59 1012.2
20260504224554 10 252 19.3 37.0 0.00 0.00 0.00 60 1011.7
20260504224055 11 225 17.7 33.8 0.00 0.00 0.00 58 1011.6
20260504223555 11 298 11.3 30.6 0.00 0.00 0.00 56 1011.6
20260504223055 11 271 12.9 30.6 0.00 0.00 0.00 53 1011.6
20260504222555 12 261 19.3 30.6 0.00 0.00 0.00 52 1011.7
20260504222058 12 255 14.5 33.8 0.00 0.00 0.00 51 1011.6
20260504221551 13 86 12.9 33.8 0.00 0.00 0.00 51 1011.4
20260504221054 13 141 17.7 35.4 0.00 0.00 0.00 48 1011.2
20260504220554 13 163 12.9 35.4 0.00 0.00 0.00 46 1011.2
20260504215552 14 115 12.9 33.8 0.00 0.00 0.00 44 1011.1
20260504215051 15 154 14.5 33.8 0.00 0.00 0.00 42 1011.2
20260504214600 15 157 14.5 33.8 0.00 0.00 0.00 43 1011.1
20260504214053 16 171 16.1 33.8 0.00 0.00 0.00 39 1011.2
20260504213552 16 34 16.1 33.8 0.00 0.00 0.00 37 1011.4
20260504213111 17 138 9.7 29.0 0.00 0.00 0.00 32 1011.5
20260504212555 17 74 4.8 14.5 0.00 0.00 0.00 30 1011.1
20260504212055 17 78 4.8 22.5 0.00 0.00 0.00 30 1011.1
20260504211556 17 239 4.8 22.5 0.00 0.00 0.00 28 1011.1
20260504211054 18 38 6.4 22.5 0.00 0.00 0.00 31 1011.2
20260504210554 18 66 6.4 22.5 0.00 0.00 0.00 30 1011.3
20260504210104 18 9 4.8 22.5 0.00 0.00 0.00 30 1011.4
20260504205555 18 29 9.7 22.5 0.00 0.00 0.00 31 1011.5
20260504205054 18 169 8.0 22.5 0.00 0.00 0.00 30 1011.5
20260504204605 17 69 6.4 22.5 0.00 0.00 0.00 32 1011.5
20260504204054 17 69 4.8 24.1 0.00 0.00 0.00 32 1011.5
20260504203552 16 16 8.0 24.1 0.00 0.00 0.00 33 1011.5
20260504203058 16 111 12.9 24.1 0.00 0.00 0.00 31 1011.6
20260504202555 17 22 11.3 24.1 0.00 0.00 0.00 31 1011.7
20260504202057 17 335 8.0 33.8 0.00 0.00 0.00 32 1011.7
20260504201553 17 47 11.3 33.8 0.00 0.00 0.00 33 1011.8
20260504201055 17 27 11.3 30.6 0.00 0.00 0.00 32 1011.6
20260504200555 17 344 12.9 30.6 0.00 0.00 0.00 30 1011.7
20260504200059 18 344 12.9 30.6 0.00 0.00 0.00 29 1011.8
20260504195554 18 57 17.7 30.6 0.00 0.00 0.00 29 1011.8
20260504195054 18 44 14.5 30.6 0.00 0.00 0.00 29 1011.8
20260504194559 18 53 6.4 25.7 0.00 0.00 0.00 30 1011.8
20260504194054 17 339 11.3 25.7 0.00 0.00 0.00 31 1011.8
20260504193554 17 25 6.4 27.4 0.00 0.00 0.00 32 1011.8
20260504193113 17 344 11.3 27.4 0.00 0.00 0.00 32 1012.0
20260504192553 16 21 8.0 29.0 0.00 0.00 0.00 34 1012.0
20260504192054 16 45 8.0 29.0 0.00 0.00 0.00 33 1012.0
20260504191559 16 30 9.7 29.0 0.00 0.00 0.00 32 1011.9
20260504191052 16 22 3.2 12.9 0.00 0.00 0.00 31 1012.1
20260504190555 16 360 4.8 12.9 0.00 0.00 0.00 30 1012.0
20260504190107 16 254 3.2 11.3 0.00 0.00 0.00 33 1012.1
20260504185554 15 178 1.6 17.7 0.00 0.00 0.00 32 1012.2
20260504185054 15 153 4.8 17.7 0.00 0.00 0.00 31 1012.4
20260504184556 16 230 4.8 29.0 0.00 0.00 0.00 32 1012.4
20260504184057 16 229 6.4 29.0 0.00 0.00 0.00 31 1012.3
20260504183555 16 93 8.0 30.6 0.00 0.00 0.00 31 1012.4
20260504183101 16 102 11.3 30.6 0.00 0.00 0.00 32 1012.3
20260504182554 16 167 12.9 30.6 0.00 0.00 0.00 32 1012.4
20260504182052 16 120 11.3 19.3 0.00 0.00 0.00 33 1012.5
20260504181559 16 153 6.4 16.1 0.00 0.00 0.00 36 1012.5
20260504181052 16 120 4.8 16.1 0.00 0.00 0.00 35 1012.5
20260504180557 16 171 6.4 16.1 0.00 0.00 0.00 34 1012.5
20260504180138 16 155 9.7 16.1 0.00 0.00 0.00 35 1012.5
20260504175555 16 138 6.4 14.5 0.00 0.00 0.00 34 1012.5
20260504175055 17 159 4.8 14.5 0.00 0.00 0.00 33 1012.5
20260504174555 17 193 4.8 11.3 0.00 0.00 0.00 31 1012.5
20260504174055 17 0 1.6 11.3 0.00 0.00 0.00 30 1012.5
20260504173555 17 178 3.2 11.3 0.00 0.00 0.00 31 1012.5
20260504173056 17 141 3.2 9.7 0.00 0.00 0.00 32 1012.5
20260504172555 17 139 1.6 16.1 0.00 0.00 0.00 30 1012.5
20260504172056 17 149 1.6 16.1 0.00 0.00 0.00 29 1012.6
20260504171558 17 53 8.0 16.1 0.00 0.00 0.00 29 1012.5
20260504171054 17 32 3.2 14.5 0.00 0.00 0.00 30 1012.5
20260504170555 17 76 8.0 14.5 0.00 0.00 0.00 32 1012.6
20260504151052 10 45 4.8 11.3 0.00 0.00 0.00 46 1013.4
20260504150553 10 49 3.2 8.0 0.00 0.00 0.00 46 1013.5
20260504141052 6 205 1.6 3.2 0.00 0.00 0.00 61 1013.9
20260504140552 6 83 0.0 4.8 0.00 0.00 0.00 62 1013.9
20260504140103 5 105 1.6 4.8 0.00 0.00 0.00 64 1013.8
20260504130553 2 255 3.2 8.0 0.00 0.00 0.00 62 1013.8
20260504120105 2 279 1.6 4.8 0.00 0.00 0.00 63 1013.4
20260504110552 3 22 0.0 4.8 0.00 0.00 0.00 62 1013.4
20260504100551 2 284 1.6 4.8 0.00 0.00 0.00 62 1013.5
20260504100114 2 321 1.6 3.2 0.00 0.00 0.00 62 1013.5
20260504081558 5 0 0.0 4.8 0.00 0.00 0.00 53 1013.4
20260504081051 5 0 1.6 6.4 0.00 0.00 0.00 52 1013.3
20260504080551 5 316 1.6 6.4 0.00 0.00 0.00 49 1013.5
20260504060159 6 229 3.2 6.4 0.00 0.00 0.00 46 1014.1
20260504050550 8 254 3.2 6.4 0.00 0.00 0.00 39 1014.4
20260504050105 9 265 3.2 8.0 0.00 0.00 0.00 39 1014.5
20260504045552 9 273 1.6 8.0 0.00 0.00 0.00 39 1014.4
20260504045051 9 301 4.8 8.0 0.00 0.00 0.00 38 1014.5
20260504044559 9 215 3.2 6.4 0.00 0.00 0.00 39 1014.6
20260504044052 10 280 3.2 9.7 0.00 0.00 0.00 37 1014.5
20260504043557 10 292 3.2 9.7 0.00 0.00 0.00 37 1014.6
20260504043101 10 255 1.6 6.4 0.00 0.00 0.00 37 1014.6
20260504042553 10 265 1.6 6.4 0.00 0.00 0.00 38 1014.5
20260504042056 10 265 3.2 6.4 0.00 0.00 0.00 37 1014.5
20260504041557 10 250 1.6 9.7 0.00 0.00 0.00 37 1014.6
20260504041053 10 259 3.2 9.7 0.00 0.00 0.00 36 1014.6
20260504040552 10 279 3.2 6.4 0.00 0.00 0.00 38 1014.5
20260504040104 10 279 3.2 11.3 0.00 0.00 0.00 37 1014.6